KB7STN Weather Reports


Display with metric or nautical units.
time (UTC)temp
F
wind
direction
speed
MPH
gust
MPH
rain 1hr
in
rain 24hr
in
rain mn
in
humidity
%
barometer
mb
20260506133715 44 320 1.0 4.0 0.00 0.09 0.09 67 1010.6
20260506133215 43 320 1.0 3.0 0.00 0.09 0.09 68 1010.5
20260506132715 43 320 1.0 4.0 0.00 0.09 0.09 68 1010.4
20260506132215 43 320 0.0 4.0 0.00 0.09 0.09 69 1010.3
20260506131715 43 320 1.0 4.0 0.00 0.09 0.09 68 1010.2
20260506131215 42 320 1.0 5.0 0.00 0.09 0.09 68 1010.1
20260506130715 42 320 1.0 4.0 0.00 0.09 0.09 68 1010.0
20260506130215 42 320 1.0 4.0 0.00 0.09 0.09 70 1009.9
20260506125715 41 320 1.0 2.0 0.00 0.09 0.09 71 1009.9
20260506125215 41 320 1.0 3.0 0.00 0.09 0.09 71 1009.8
20260506124715 41 320 1.0 2.0 0.00 0.09 0.09 72 1009.8
20260506124215 41 320 1.0 3.0 0.00 0.09 0.09 72 1009.6
20260506123715 41 320 0.0 2.0 0.00 0.09 0.09 73 1009.6
20260506123215 41 320 1.0 2.0 0.00 0.09 0.09 73 1009.5
20260506122715 41 320 1.0 4.0 0.00 0.09 0.09 74 1009.5
20260506122215 41 320 1.0 2.0 0.00 0.09 0.09 74 1009.6
20260506121715 41 320 1.0 3.0 0.00 0.09 0.09 75 1009.5
20260506121215 40 320 1.0 3.0 0.00 0.09 0.09 76 1009.6
20260506120715 40 320 1.0 2.0 0.00 0.09 0.09 77 1009.4
20260506120215 40 320 1.0 3.0 0.00 0.09 0.09 77 1009.3
20260506115715 40 320 0.0 2.0 0.00 0.09 0.09 78 1009.3
20260506115215 40 320 1.0 2.0 0.00 0.09 0.09 78 1009.3
20260506114715 40 320 1.0 4.0 0.00 0.09 0.09 78 1009.2
20260506114215 40 320 1.0 4.0 0.00 0.09 0.09 78 1009.2
20260506113715 40 320 1.0 6.0 0.00 0.09 0.09 78 1009.1
20260506113215 40 320 2.0 6.0 0.00 0.09 0.09 78 1009.3
20260506112715 40 320 2.0 5.0 0.00 0.09 0.09 78 1009.2
20260506112215 40 320 2.0 6.0 0.00 0.09 0.09 78 1009.1
20260506111715 40 320 3.0 6.0 0.00 0.09 0.09 79 1009.2
20260506111215 40 320 3.0 8.0 0.00 0.09 0.09 79 1009.3
20260506110715 40 319 3.0 9.0 0.00 0.09 0.09 79 1009.1
20260506110215 40 319 3.0 9.0 0.00 0.09 0.09 80 1009.2
20260506105715 40 319 3.0 8.0 0.00 0.09 0.09 81 1009.1
20260506105215 40 319 3.0 10.0 0.01 0.09 0.09 81 1008.9
20260506104715 40 325 3.0 7.0 0.01 0.09 0.09 82 1008.8
20260506104215 39 325 4.0 11.0 0.01 0.09 0.09 83 1008.8
20260506103715 39 327 4.0 12.0 0.01 0.09 0.09 85 1008.7
20260506103215 39 324 3.0 9.0 0.01 0.09 0.09 86 1008.6
20260506102715 39 325 3.0 6.0 0.01 0.09 0.09 86 1008.4
20260506102215 39 325 3.0 7.0 0.01 0.09 0.09 87 1008.3
20260506101715 40 323 3.0 9.0 0.01 0.09 0.09 87 1008.1
20260506101215 40 322 3.0 8.0 0.01 0.09 0.09 87 1008.0
20260506100715 40 321 3.0 8.0 0.02 0.09 0.09 87 1008.0
20260506100215 40 323 3.0 7.0 0.02 0.09 0.09 88 1007.8
20260506095715 41 324 3.0 10.0 0.03 0.09 0.09 88 1007.8
20260506095215 41 327 3.0 8.0 0.02 0.08 0.08 88 1007.6
20260506094715 41 328 3.0 8.0 0.04 0.08 0.08 88 1007.5
20260506094215 41 331 3.0 8.0 0.07 0.08 0.08 88 1007.2
20260506093715 41 5 2.0 8.0 0.08 0.08 0.08 88 1007.2
20260506093215 41 19 2.0 5.0 0.08 0.08 0.08 87 1007.2
20260506092715 41 19 2.0 7.0 0.08 0.08 0.08 87 1007.2
20260506092215 41 26 2.0 5.0 0.08 0.08 0.08 86 1007.2
20260506091715 41 28 1.0 5.0 0.08 0.08 0.08 86 1007.1
20260506091215 42 28 1.0 5.0 0.08 0.08 0.08 85 1007.1
20260506090715 42 30 1.0 5.0 0.07 0.07 0.07 84 1007.0
20260506090215 42 33 2.0 6.0 0.07 0.07 0.07 82 1006.8
20260506085715 43 38 4.0 9.0 0.06 0.06 0.06 80 1006.8
20260506085215 44 59 5.0 11.0 0.06 0.06 0.06 75 1006.7
20260506084715 46 70 3.0 11.0 0.04 0.04 0.04 73 1006.5
20260506084215 48 277 2.0 5.0 0.01 0.01 0.01 76 1005.9
20260506083715 47 276 1.0 6.0 0.00 0.00 0.00 75 1004.8
20260506083215 48 276 0.0 2.0 0.00 0.00 0.00 74 1004.5
20260506082715 48 275 0.0 0.0 0.00 0.00 0.00 73 1004.0
20260506082215 48 276 0.0 0.0 0.00 0.00 0.00 72 1003.9
20260506081715 48 275 0.0 0.0 0.00 0.00 0.00 70 1004.1
20260506081215 49 275 0.0 0.0 0.00 0.00 0.00 69 1004.0
20260506080715 49 275 0.0 0.0 0.00 0.00 0.00 68 1004.0
20260506080215 49 276 0.0 0.0 0.00 0.00 0.00 66 1004.1
20260506073215 49 275 1.0 3.0 0.00 0.00 0.00 67 1004.3
20260506072716 49 275 2.0 3.0 0.00 0.00 0.00 69 1004.3
20260506072216 49 276 3.0 8.0 0.00 0.00 0.00 69 1004.3
20260506071716 48 276 4.0 9.0 0.00 0.00 0.00 70 1004.2
20260506071216 48 277 4.0 11.0 0.00 0.00 0.00 71 1004.1
20260506070716 48 275 3.0 9.0 0.00 0.00 0.00 73 1004.2
20260506070216 49 275 3.0 7.0 0.00 0.00 0.00 73 1004.1
20260506062216 51 273 4.0 16.0 0.00 0.00 0.00 63 1003.7
20260506061716 51 281 3.0 9.0 0.00 0.00 0.00 62 1003.7
20260506061216 51 289 2.0 6.0 0.00 0.00 0.00 62 1003.7
20260506060716 51 292 1.0 5.0 0.00 0.00 0.00 62 1003.6
20260506060216 51 292 0.0 5.0 0.00 0.00 0.00 62 1003.6
20260506051216 49 169 0.0 0.0 0.00 0.00 0.00 65 1002.9
20260506050716 48 169 0.0 0.0 0.00 0.00 0.00 65 1002.8
20260506050216 48 169 0.0 0.0 0.00 0.00 0.00 65 1002.6
20260506044716 48 169 0.0 0.0 0.00 0.00 0.00 66 1002.5
20260506044216 48 169 0.0 0.0 0.00 0.00 0.00 66 1002.4
20260506043716 48 169 0.0 0.0 0.00 0.00 0.00 66 1002.4
20260506043216 48 169 0.0 0.0 0.00 0.00 0.00 66 1002.5
20260506042716 48 169 0.0 0.0 0.00 0.00 0.00 66 1002.5
20260506042216 48 169 0.0 0.0 0.00 0.00 0.00 66 1002.4
20260506041716 48 169 0.0 0.0 0.00 0.00 0.00 65 1002.4
20260506041216 48 169 0.0 0.0 0.00 0.00 0.00 65 1002.3
20260506040716 48 169 0.0 0.0 0.00 0.00 0.00 65 1002.3
20260506040216 48 169 0.0 0.0 0.00 0.00 0.00 64 1002.3
20260506035716 48 169 0.0 0.0 0.00 0.00 0.00 64 1002.3
20260506035216 49 169 0.0 0.0 0.00 0.00 0.00 64 1002.3
20260506034716 49 169 0.0 0.0 0.00 0.00 0.00 63 1002.3
20260506034216 49 169 0.0 0.0 0.00 0.00 0.00 63 1002.3
20260506033716 49 169 0.0 0.0 0.00 0.00 0.00 64 1002.2
20260506033216 49 169 0.0 0.0 0.00 0.00 0.00 63 1002.0
20260506032716 49 169 0.0 0.0 0.00 0.00 0.00 63 1002.0
20260506032216 49 169 0.0 0.0 0.00 0.00 0.00 62 1002.0
20260506031716 50 169 0.0 0.0 0.00 0.00 0.00 62 1001.8
20260506031216 50 169 0.0 0.0 0.00 0.00 0.00 61 1001.8
20260506030716 50 169 0.0 0.0 0.00 0.00 0.00 61 1001.8
20260506030216 51 169 0.0 0.0 0.00 0.00 0.00 60 1001.7
20260506025716 51 169 0.0 0.0 0.00 0.00 0.00 59 1001.6
20260506025216 51 169 0.0 0.0 0.00 0.00 0.00 59 1001.6
20260506024716 52 169 0.0 0.0 0.00 0.00 0.00 59 1001.5
20260506024216 52 169 0.0 0.0 0.00 0.00 0.00 58 1001.4
20260506023716 52 169 0.0 0.0 0.00 0.00 0.00 57 1001.4
20260506023216 53 169 0.0 0.0 0.00 0.00 0.00 57 1001.3
20260506022716 53 169 0.0 0.0 0.00 0.00 0.00 56 1001.3
20260506022216 53 169 0.0 0.0 0.00 0.00 0.00 55 1001.1
20260506021716 53 169 0.0 0.0 0.00 0.00 0.00 55 1001.1
20260506021216 53 169 1.0 4.0 0.00 0.00 0.00 54 1001.1
20260506020716 53 168 1.0 2.0 0.00 0.00 0.00 54 1001.1
20260506020216 54 167 1.0 4.0 0.00 0.00 0.00 54 1001.0
20260506015716 54 167 1.0 3.0 0.00 0.00 0.00 54 1001.1
20260506015216 54 166 1.0 4.0 0.00 0.00 0.00 54 1001.0
20260506014716 54 165 1.0 3.0 0.00 0.00 0.00 53 1001.1
20260506014216 55 165 1.0 3.0 0.00 0.00 0.00 53 1001.0
20260506013716 55 165 1.0 3.0 0.00 0.00 0.00 52 1001.0
20260506013216 56 165 1.0 4.0 0.00 0.00 0.00 51 1001.0
20260506012716 56 165 0.0 3.0 0.00 0.00 0.00 51 1000.9
20260506012216 56 165 0.0 0.0 0.00 0.00 0.00 51 1000.8
20260506011716 56 165 1.0 2.0 0.00 0.00 0.00 51 1000.9
20260506011216 56 165 2.0 4.0 0.00 0.00 0.00 51 1000.8
20260506010716 56 165 2.0 6.0 0.00 0.00 0.00 50 1000.9
20260506010216 56 182 2.0 4.0 0.00 0.00 0.00 51 1000.9
20260506005716 57 181 2.0 4.0 0.00 0.00 0.00 50 1000.8
20260506005216 57 181 2.0 5.0 0.00 0.00 0.00 51 1000.8
20260506004716 57 163 2.0 5.0 0.00 0.00 0.00 51 1000.8
20260506004216 57 164 2.0 6.0 0.00 0.00 0.00 51 1000.8
20260506003716 57 184 2.0 5.0 0.00 0.00 0.00 51 1000.8
20260506003216 57 194 2.0 4.0 0.00 0.00 0.00 51 1000.7
20260506002716 57 188 2.0 4.0 0.00 0.00 0.00 51 1000.7
20260506002216 57 188 2.0 6.0 0.00 0.00 0.00 51 1000.8
20260506001716 57 154 2.0 6.0 0.00 0.00 0.00 51 1000.8
20260506001216 57 159 1.0 6.0 0.00 0.00 0.00 52 1000.8
20260506000716 57 164 1.0 3.0 0.00 0.00 0.00 52 1000.7
20260506000219 57 164 2.0 4.0 0.00 0.00 0.00 52 1000.8
20260505235716 57 164 1.0 5.0 0.00 0.00 0.00 52 1000.9
20260505235216 56 161 1.0 2.0 0.00 0.00 0.00 53 1000.8
20260505234716 56 161 1.0 4.0 0.00 0.00 0.00 53 1000.8
20260505234216 56 160 1.0 7.0 0.00 0.00 0.00 54 1000.9
20260505233716 56 180 2.0 4.0 0.00 0.00 0.00 52 1000.8
20260505233216 57 178 2.0 6.0 0.00 0.00 0.00 52 1000.8
20260505232716 56 201 1.0 6.0 0.00 0.00 0.00 53 1000.8
20260505232216 56 193 1.0 5.0 0.00 0.00 0.00 54 1000.9
20260505231716 56 184 1.0 4.0 0.00 0.00 0.00 54 1000.9
20260505231216 56 184 1.0 4.0 0.00 0.00 0.00 56 1001.0
20260505230716 56 185 1.0 4.0 0.00 0.00 0.00 56 1001.0
20260505230216 55 186 1.0 3.0 0.00 0.00 0.00 57 1001.0
20260505225716 55 186 1.0 4.0 0.00 0.00 0.00 58 1001.1
20260505225216 54 185 1.0 4.0 0.00 0.00 0.00 61 1001.1
20260505224716 54 186 1.0 4.0 0.00 0.00 0.00 62 1001.2
20260505224216 53 186 1.0 3.0 0.00 0.00 0.00 61 1001.2
20260505223716 53 186 1.0 2.0 0.00 0.00 0.00 61 1001.3
20260505223216 53 186 0.0 3.0 0.00 0.00 0.00 62 1001.5
20260505222716 53 186 0.0 3.0 0.00 0.00 0.00 60 1001.6
20260505222216 53 186 1.0 1.0 0.00 0.00 0.00 61 1001.6
20260505221716 53 165 1.0 5.0 0.00 0.00 0.00 60 1001.6
20260505221216 54 163 1.0 3.0 0.00 0.00 0.00 58 1001.6
20260505220716 54 163 1.0 3.0 0.00 0.00 0.00 56 1001.7
20260505220216 54 163 1.0 2.0 0.00 0.00 0.00 53 1001.7
20260505215716 55 163 1.0 3.0 0.00 0.00 0.00 52 1001.7
20260505215216 55 163 1.0 3.0 0.00 0.00 0.00 53 1001.6
20260505214716 55 163 2.0 4.0 0.00 0.00 0.00 52 1001.7
20260505214216 55 165 2.0 4.0 0.00 0.00 0.00 52 1001.6
20260505213716 55 166 2.0 5.0 0.00 0.00 0.00 53 1001.6
20260505213216 55 165 1.0 5.0 0.00 0.00 0.00 53 1001.6
20260505212717 55 163 2.0 3.0 0.00 0.00 0.00 54 1001.5
20260505212216 54 163 2.0 7.0 0.00 0.00 0.00 53 1001.5
20260505211716 54 175 2.0 3.0 0.00 0.00 0.00 54 1001.5
20260505211217 54 175 2.0 5.0 0.00 0.00 0.00 53 1001.5
20260505210716 54 173 2.0 5.0 0.00 0.00 0.00 54 1001.5
20260505210217 54 174 2.0 5.0 0.00 0.00 0.00 54 1001.5
20260505205717 54 178 2.0 6.0 0.00 0.00 0.00 55 1001.5
20260505205217 54 179 2.0 3.0 0.00 0.00 0.00 55 1001.6
20260505204717 54 179 2.0 4.0 0.00 0.00 0.00 55 1001.6
20260505204217 54 179 2.0 4.0 0.00 0.00 0.00 55 1001.5
20260505203717 54 178 1.0 5.0 0.00 0.00 0.00 55 1001.4
20260505203217 54 179 2.0 4.0 0.00 0.00 0.00 55 1001.5
20260505202717 54 175 2.0 4.0 0.00 0.00 0.00 55 1001.4
20260505202217 53 175 2.0 6.0 0.00 0.00 0.00 55 1001.5
20260505201717 53 177 2.0 5.0 0.00 0.00 0.00 55 1001.4
20260505201217 53 174 2.0 6.0 0.00 0.00 0.00 55 1001.4
20260505200717 53 177 2.0 5.0 0.00 0.00 0.00 55 1001.5
20260505200217 53 175 2.0 5.0 0.00 0.00 0.00 55 1001.4
20260505195717 53 173 2.0 4.0 0.00 0.00 0.00 55 1001.3
20260505195217 53 173 2.0 4.0 0.00 0.00 0.00 58 1001.2
20260505194717 53 173 2.0 7.0 0.00 0.00 0.00 58 1001.3
20260505194217 53 171 2.0 5.0 0.00 0.00 0.00 56 1001.2
20260505193717 53 191 3.0 5.0 0.00 0.00 0.00 56 1001.3
20260505193217 53 184 3.0 6.0 0.00 0.00 0.00 57 1001.3
20260505192743 53 194 3.0 5.0 0.00 0.00 0.00 58 1001.2
20260505192217 52 190 3.0 5.0 0.00 0.00 0.00 57 1001.2
20260505191717 52 203 3.0 5.0 0.00 0.00 0.00 57 1001.1
20260505191217 52 213 3.0 6.0 0.00 0.00 0.00 58 1001.2
20260505190717 52 197 3.0 5.0 0.00 0.00 0.00 59 1001.1
20260505190217 52 170 4.0 7.0 0.00 0.00 0.00 58 1001.2
20260505185717 52 207 4.0 7.0 0.00 0.00 0.00 58 1001.2
20260505185217 52 207 4.0 8.0 0.00 0.00 0.00 59 1001.1
20260505184717 53 184 3.0 9.0 0.00 0.00 0.00 59 1001.2
20260505184217 53 202 4.0 7.0 0.00 0.00 0.00 59 1001.1
20260505183717 52 195 4.0 10.0 0.00 0.00 0.00 60 1001.0
20260505183217 52 180 4.0 9.0 0.00 0.00 0.00 61 1001.0
20260505182717 51 229 4.0 9.0 0.00 0.00 0.00 61 1001.0
20260505182217 51 213 4.0 6.0 0.00 0.00 0.00 62 1000.9
20260505181717 51 179 3.0 9.0 0.00 0.00 0.00 63 1000.8
20260505181217 51 201 3.0 7.0 0.00 0.00 0.00 62 1000.8
20260505180717 51 211 3.0 5.0 0.00 0.00 0.00 63 1001.0
20260505180217 51 209 4.0 7.0 0.00 0.00 0.00 62 1001.1
20260505175717 51 152 3.0 9.0 0.00 0.00 0.00 63 1001.0
20260505175217 51 217 3.0 8.0 0.00 0.00 0.00 62 1001.0
20260505174717 51 193 3.0 5.0 0.00 0.00 0.00 63 1001.0
20260505174217 51 219 3.0 6.0 0.00 0.00 0.00 63 1001.0
20260505173717 50 213 4.0 8.0 0.00 0.00 0.00 63 1000.9
20260505173217 50 201 4.0 7.0 0.00 0.00 0.00 63 1000.9
20260505172717 50 212 4.0 8.0 0.00 0.00 0.00 65 1000.7
20260505172217 50 211 4.0 9.0 0.00 0.00 0.00 67 1000.8
20260505171717 49 225 4.0 8.0 0.00 0.00 0.00 68 1000.7
20260505171217 49 221 4.0 8.0 0.00 0.00 0.00 68 1000.7
20260505170719 49 220 3.0 7.0 0.00 0.00 0.00 68 1000.8
20260505170217 48 213 3.0 7.0 0.00 0.00 0.00 70 1000.7
20260505165717 48 217 3.0 8.0 0.00 0.00 0.00 71 1000.8
20260505165217 48 206 4.0 7.0 0.00 0.00 0.00 72 1000.8
20260505164717 48 193 4.0 7.0 0.00 0.00 0.00 73 1000.7
20260505164217 48 205 3.0 6.0 0.00 0.00 0.00 74 1000.7
20260505163717 47 159 3.0 7.0 0.00 0.00 0.00 74 1000.7
20260505163217 47 182 3.0 6.0 0.00 0.00 0.00 74 1000.8
20260505162717 47 179 3.0 5.0 0.00 0.00 0.00 74 1000.8
20260505162217 47 173 4.0 7.0 0.00 0.00 0.00 73 1000.9
20260505161717 47 177 4.0 7.0 0.00 0.00 0.00 72 1000.9
20260505161217 48 161 4.0 10.0 0.00 0.00 0.00 71 1000.9
20260505160717 48 198 4.0 7.0 0.00 0.00 0.00 70 1000.9
20260505160217 48 163 4.0 7.0 0.00 0.00 0.00 70 1000.9
20260505153308 48 221 4.0 9.0 0.00 0.00 0.00 68 1000.2
20260505152717 48 179 4.0 7.0 0.00 0.00 0.00 67 1000.2
20260505152217 49 185 4.0 9.0 0.00 0.00 0.00 66 1000.2
20260505151717 49 177 3.0 7.0 0.00 0.00 0.00 66 1000.1
20260505151217 49 206 3.0 5.0 0.00 0.00 0.00 66 1000.1
20260505150717 49 209 3.0 7.0 0.00 0.00 0.00 65 1000.0
20260505150217 49 202 2.0 5.0 0.00 0.00 0.00 64 1000.1
20260505140217 50 221 2.0 7.0 0.00 0.00 0.00 59 999.6